Overview Statistics Trail Chart Weather Telemetry Raw packets
 

This is the latest recevied weather packets stored in our database for station/object N2ZVN. If no packets are shown the sender has not sent any weather packets the latest 10 day(s).

<< 31 32 33 34 35 36 37 >>
Time Temp. Humidity Pressure Rain* Wind** Luminosity Snow
1788488166 20.56° C 93% 1014.2 hPa 0 mm - 0 W/m² -
1788487861 20.56° C 91% 1014.5 hPa 0 mm - 0 W/m² -
1788487556 21.11° C 92% 1014.5 hPa 0 mm - 0 W/m² -
1788487251 21.11° C 93% 1014.4 hPa 0 mm - 0 W/m² -
1788486945 21.11° C 92% 1014.4 hPa 0 mm - 0 W/m² -
1788486644 21.11° C 92% 1014.5 hPa 0 mm - 0 W/m² -
1788486338 21.11° C 92% 1014.4 hPa 0 mm - 0 W/m² -
1788486034 21.11° C 87% 1014.3 hPa 0 mm - 0 W/m² -
1788485730 21.67° C 88% 1014.3 hPa 0 mm - 0 W/m² -
1788485426 21.67° C 90% 1014.2 hPa 0 mm - 0 W/m² -
1788485121 22.22° C 89% 1014.1 hPa 0 mm - 0 W/m² -
1788484821 22.22° C 85% 1014.1 hPa 0 mm - 0 W/m² -
1788484520 22.22° C 85% 1014.1 hPa 0 mm - 0 W/m² -
1788484215 22.78° C 88% 1014 hPa 0 mm - 0 W/m² -
1788483912 22.78° C 86% 1013.9 hPa 0 mm - 0 W/m² -
1788483607 22.78° C 83% 1014.1 hPa 0 mm - 0 W/m² -
1788483302 22.78° C 86% 1014.1 hPa 0 mm - 0 W/m² -
1788483002 22.78° C 86% 1014.1 hPa 0 mm - 0 W/m² -
1788482699 22.78° C 85% 1013.9 hPa 0 mm - 0 W/m² -
1788482398 22.78° C 85% 1013.8 hPa 0 mm - 0 W/m² -
1788482094 22.78° C 85% 1013.8 hPa 0 mm - 0 W/m² -
1788481789 22.78° C 87% 1013.7 hPa 0 mm - 0 W/m² -
1788481486 23.33° C 85% 1013.7 hPa 0 mm - 0 W/m² -
1788481185 23.33° C 84% 1013.8 hPa 0 mm - 0 W/m² -
1788480881 23.89° C 82% 1013.8 hPa 0 mm - 0 W/m² -

* Rain latest hour (hover to see other rain measurements)
** Current wind speed in m/s (hover to see current wind gust speed)